Location: Phoenix
(33.4480°N, 112.0730°W)
Time: 18:31:29
(UTC-07:00)

ISS - All Passes

Search period start: 25 August 2016 00:00
Search period end: 04 September 2016 00:00
Orbit: 402 x 406 km, 51.6° (Epoch: 25 August)

Date Brightness Start Highest point End Pass type
(mag) Time Alt. Az. Time Alt. Az. Time Alt. Az.
25 Aug - 07:58:41 10° SSE 08:00:49 16° SE 08:02:57 10° E daylight
25 Aug - 09:34:02 10° WSW 09:37:04 34° NW 09:40:06 10° NNE daylight
25 Aug - 16:04:51 10° NNW 16:07:54 34° NE 16:10:55 10° ESE daylight
25 Aug - 17:42:02 10° W 17:44:08 16° SW 17:46:13 10° SSW daylight
26 Aug - 08:41:20 10° SW 08:44:36 75° NW 08:47:53 10° NE daylight
26 Aug - 15:12:54 10° NNW 15:15:21 19° NE 15:17:47 10° E daylight
26 Aug - 16:48:52 10° WNW 16:51:53 34° SW 16:54:52 10° SSE daylight
27 Aug - 07:49:05 10° SSW 07:52:13 46° SE 07:55:23 10° ENE daylight
27 Aug - 09:26:44 10° WNW 09:28:52 16° NNW 09:31:01 10° N daylight
27 Aug - 14:21:25 10° N 14:22:41 12° NNE 14:23:57 10° NE daylight
27 Aug - 15:56:15 10° NW 15:59:31 82° SW 16:02:47 10° SE daylight
28 Aug - 06:57:24 10° S 06:59:56 21° SE 07:02:28 10° ENE daylight
28 Aug - 08:33:23 10° W 08:36:16 28° NW 08:39:09 10° NNE daylight
28 Aug - 15:03:55 10° NNW 15:07:05 43° NE 15:10:13 10° ESE daylight
28 Aug - 16:41:45 10° W 16:43:13 12° SW 16:44:41 10° SSW daylight
29 Aug - 07:40:31 10° WSW 07:43:45 56° NW 07:46:58 10° NE daylight
29 Aug - 14:11:50 10° NNW 14:14:32 23° NE 14:17:12 10° E daylight
29 Aug - 15:48:09 10° WNW 15:50:57 26° SW 15:53:45 10° S daylight
30 Aug - 06:48:04 10° SW 06:51:18 62° SE 06:54:33 10° NE daylight
30 Aug - 08:26:17 10° WNW 08:28:02 14° NNW 08:29:48 10° N daylight
30 Aug - 13:20:05 10° N 13:21:52 14° NNE 13:23:38 10° ENE daylight
30 Aug - 14:55:22 10° NW 14:58:36 61° SW 15:01:49 10° SE daylight
31 Aug - 05:56:08 10° S 05:58:56 27° SE 06:01:45 10° ENE daylight
31 Aug - 07:32:42 10° W 07:35:22 23° NW 07:38:04 10° NNE daylight
31 Aug - 14:02:55 10° NW 14:06:09 57° NE 14:09:22 10° ESE daylight
01 Sep - 05:05:09 10° SSE 05:06:38 13° SE 05:08:08 10° E visible
01 Sep - 06:39:38 10° WSW 06:42:47 43° NW 06:45:57 10° NNE daylight
01 Sep - 13:10:43 10° NNW 13:13:35 28° NE 13:16:27 10° E daylight
01 Sep - 14:47:24 10° WNW 14:49:55 21° SW 14:52:25 10° S daylight
02 Sep - 05:47:01 10° SW 05:50:17 83° SE 05:53:33 10° NE daylight
02 Sep - 07:25:52 10° NW 07:27:07 12° NNW 07:28:23 10° N daylight
02 Sep - 12:18:46 10° N 12:20:55 16° NNE 12:23:04 10° ENE daylight
02 Sep - 13:54:24 10° WNW 13:57:33 46° SW 14:00:41 10° SSE daylight
03 Sep - 04:54:51 10° SSW 04:57:51 34° SE 05:00:52 10° ENE visible
03 Sep - 06:31:57 10° W 06:34:23 19° NW 06:36:50 10° NNE daylight
03 Sep - 13:01:50 10° NW 13:05:05 75° NE 13:08:21 10° SE daylight
